TimePST,TemperatureF,Dew PointF,Humidity,Sea Level PressureIn,VisibilityMPH,Wind Direction,Wind SpeedMPH,Gust SpeedMPH,PrecipitationIn,Events,Conditions,WindDirDegrees,DateUTC
1:53 AM,26.1,23.0,88,30.41,7.0,SE,3.5,-,N/A,,Clear,130,2013-02-02 09:53:00
2:53 AM,23.0,21.0,92,30.41,9.0,Calm,Calm,-,N/A,,Clear,0,2013-02-02 10:53:00
4:10 AM,24.8,21.2,86,30.33,9.0,Calm,Calm,-,N/A,,Scattered Clouds,0,2013-02-02 12:10:00
4:28 AM,23.0,19.4,86,30.33,9.0,Calm,Calm,-,N/A,,Mostly Cloudy,0,2013-02-02 12:28:00
4:53 AM,26.1,24.1,92,30.40,10.0,Calm,Calm,-,N/A,,Partly Cloudy,0,2013-02-02 12:53:00
5:36 AM,21.2,19.4,93,30.33,1.8,Calm,Calm,-,N/A,,Clear,0,2013-02-02 13:36:00
5:45 AM,21.2,19.4,93,30.33,0.5,Calm,Calm,-,N/A,Fog,Light Freezing Fog,0,2013-02-02 13:45:00
5:53 AM,23.0,21.0,92,30.42,0.5,Calm,Calm,-,N/A,Fog,Light Freezing Fog,0,2013-02-02 13:53:00
6:08 AM,24.8,21.2,86,30.32,2.0,Calm,Calm,-,N/A,,Mostly Cloudy,0,2013-02-02 14:08:00
6:15 AM,24.8,21.2,86,30.32,10.0,Calm,Calm,-,N/A,,Scattered Clouds,0,2013-02-02 14:15:00
6:53 AM,24.1,19.9,84,30.43,10.0,Calm,Calm,-,N/A,,Clear,0,2013-02-02 14:53:00
7:53 AM,25.0,23.0,92,30.45,5.0,Calm,Calm,-,N/A,,Clear,0,2013-02-02 15:53:00
8:53 AM,28.0,27.0,96,30.45,6.0,Calm,Calm,-,N/A,,Clear,0,2013-02-02 16:53:00
9:53 AM,32.0,30.0,92,30.46,10.0,Calm,Calm,-,N/A,,Clear,0,2013-02-02 17:53:00
10:53 AM,35.1,32.0,89,30.45,10.0,Calm,Calm,-,N/A,,Clear,0,2013-02-02 18:53:00
11:53 AM,39.0,33.1,79,30.43,10.0,SW,3.5,-,N/A,,Clear,230,2013-02-02 19:53:00
12:53 PM,42.1,30.9,65,30.41,10.0,SW,3.5,-,N/A,,Clear,220,2013-02-02 20:53:00
1:53 PM,44.1,32.0,63,30.39,10.0,Calm,Calm,-,N/A,,Clear,0,2013-02-02 21:53:00
2:53 PM,45.0,32.0,60,30.38,10.0,Calm,Calm,-,N/A,,Clear,0,2013-02-02 22:53:00
3:53 PM,46.0,32.0,58,30.37,10.0,Calm,Calm,-,N/A,,Clear,0,2013-02-02 23:53:00
4:53 PM,46.9,33.1,59,30.36,10.0,SW,4.6,-,N/A,,Clear,220,2013-02-03 00:53:00
5:53 PM,37.9,30.9,76,30.38,10.0,SSE,3.5,-,N/A,,Clear,150,2013-02-03 01:53:00
6:53 PM,35.1,28.9,78,30.38,10.0,Calm,Calm,-,N/A,,Clear,0,2013-02-03 02:53:00
7:53 PM,32.0,28.0,85,30.38,10.0,SE,4.6,-,N/A,,Clear,130,2013-02-03 03:53:00
8:53 PM,33.1,30.0,89,30.38,10.0,NNE,3.5,-,N/A,,Clear,30,2013-02-03 04:53:00
9:53 PM,26.1,24.1,92,30.40,10.0,Calm,Calm,-,N/A,,Clear,0,2013-02-03 05:53:00
10:53 PM,27.0,25.0,92,30.39,10.0,Calm,Calm,-,N/A,,Clear,0,2013-02-03 06:53:00
11:53 PM,28.0,25.0,88,30.40,9.0,Calm,Calm,-,N/A,,Clear,0,2013-02-03 07:53:00